Regional Weather Roundup
Issued by NWS

Home | Current Version | Previous Version | Text Only | Print | Product List | Glossary On
Versions: 1 2 3 4 5 6 7 8 9 10 11 12 13 14 15 16 17 18 19 20 21 22 23 24 25 26 27
000
ASUS45 KREV 261910
RWRNV
NEVADA REGIONAL WEATHER ROUNDUP
NATIONAL WEATHER SERVICE RENO NV
1200 PM PDT SUN MAR 26 2017

NOTE: "FAIR" INDICATES FEW OR NO CLOUDS BELOW 12,000 FEET WITH NO
SIGNIFICANT WEATHER AND/OR OBSTRUCTIONS TO VISIBILITY.

NVZ001-003-004-262000-
WESTERN NEVADA

CITY           SKY/WX    TMP DP  RH WIND       PRES   REMARKS
RENO           PTSUNNY   52  27  38 NW13G23   30.01S
CARSON CITY    PTSUNNY   46  27  46 SW15G22   30.03S
MINDEN         FAIR      50  28  43 W10G16    30.01F
FALLON         CLOUDY    52  28  39 VRB7      30.00R
LOVELOCK       CLOUDY    50  30  46 CALM      30.00R
HAWTHORNE      PTSUNNY   52  23  32 VRB5      29.97S
$$

NVZ002-CAZ072-073-262000-
NORTHERN AND CENTRAL SIERRA

CITY           SKY/WX    TMP DP  RH WIND       PRES   REMARKS
S. LAKE TAHOE  CLOUDY    40  28  62 S15G25    30.05S
TRUCKEE        CLOUDY    37  27  65 SW10      30.08R
SQUAW VLY 8000   N/A     28  28 100 SW17        N/A
SUSANVILLE     CLOUDY    46  30  53 S7G16     30.00F
MAMMOTH LAKES  PTSUNNY   47  21  36 SE5       30.05F
BRIDGEPORT       N/A     44  23  43 S7G24     30.00R
$$

NVZ030-031-036-262000-
NORTHERN NEVADA

CITY           SKY/WX    TMP DP  RH WIND       PRES   REMARKS
ELKO           CLOUDY    51  27  39 S10       29.97F
WINNEMUCCA     CLOUDY    49  30  48 SW18G24   29.98R
WENDOVER       PTSUNNY   48  34  58 E7        30.03F
$$

NVZ035-037-262000-
CENTRAL NEVADA

CITY           SKY/WX    TMP DP  RH WIND       PRES   REMARKS
ELY            PTSUNNY   47  26  44 S8        30.03F
EUREKA           N/A     48  26  42 S12       29.99F
$$

NVZ013-014-262000-
SOUTH CENTRAL NEVADA

CITY           SKY/WX    TMP DP  RH WIND       PRES   REMARKS
TONOPAH        PTSUNNY   52  32  46 S12       30.03F
$$

NVZ017-020-022-262000-
SOUTHERN NEVADA

CITY           SKY/WX    TMP DP  RH WIND       PRES   REMARKS
LAS VEGAS      MOSUNNY   67  32  27 VRB6      30.00F
N. LAS VEGAS   SUNNY     65  33  30 SE8       30.01F
NELLIS AFB     SUNNY     67  34  29 NE9       30.00F
HENDERSON      SUNNY     66  37  34 VRB5      30.03F
MERCURY        MOSUNNY   64  37  36 NE7       30.01F
$$




USA.gov is the U.S. government's official web portal to all federal, state and local government web resources and services.